Regional Weather Roundup
Issued by NWS Little Rock, AR

Home | Current Version | Previous Version | Text Only | Print | Product List | Glossary Off
Versions: 1 2 3 4 5 6 7 8 9 10 11 12 13 14 15 16 17 18 19 20 21 22 23 24 25 26 27 28 29 30 31 32 33 34 35 36 37 38 39 40 41 42 43 44 45 46 47 48 49 50

000
ASUS44 KLZK 221605
RWRLZK

WEATHER ROUNDUP FOR ARKANSAS
NATIONAL WEATHER SERVICE LITTLE ROCK AR
1000 AM CST THU FEB 22 2018

NOTE: "FAIR" INDICATES FEW OR NO CLOUDS BELOW 12,000 FEET WITH NO
SIGNIFICANT WEATHER AND/OR OBSTRUCTIONS TO VISIBILITY.

ARZ001-003-010-029-221700-
NORTHWEST ARKANSAS

CITY           SKY/WX    TMP DP  RH WIND       PRES   REMARKS
FAYETTEVILLE   SUNNY     44  41  89 E5        30.30S
FORT SMITH     CLOUDY    42  41  96 E6        30.31F
HARRISON       CLOUDY    36  36 100 SE6       30.32F
BENTONVILLE    PTSUNNY   42  38  85 E6        30.31R
SILOAM SPGS    CLOUDY    41  38  89 SW3       30.31S
HIGHFILL       MOSUNNY   44  40  85 E8        30.29S
SPRINGDALE     MOSUNNY   43  39  87 E7        30.31R
$$

ARZ004-005-016-221700-
NORTH CENTRAL ARKANSAS

CITY           SKY/WX    TMP DP  RH WIND       PRES   REMARKS
BATESVILLE     CLOUDY    39  38  96 N5        30.38F
FLIPPIN        CLOUDY    38  37  97 E5        30.35F
MTN HOME       CLOUDY    37  37 100 VRB7      30.33F
$$

ARZ040-041-221700-
WEST CENTRAL ARKANSAS

CITY           SKY/WX    TMP DP  RH WIND       PRES   REMARKS
MENA           CLOUDY    45  45 100 E7        30.30F
MOUNT IDA      CLOUDY    43  42  97 VRB3      30.30S
$$

ARZ009-017-025-026-028-221700-
NORTHEAST ARKANSAS

CITY           SKY/WX    TMP DP  RH WIND       PRES   REMARKS
JONESBORO      CLOUDY    43  42  97 N5        30.39R
NEWPORT          N/A     40  39  97 NE8       30.40R
WALNUT RIDGE   CLOUDY    40  39  97 N8        30.40S
BLYTHEVILLE    CLOUDY    44  32  62 N7        30.39R FOG
NW BLYTHEVILLE CLOUDY    43  43 100 N12       30.38R FOG
$$

ARZ022-023-033-042-044-221700-
CENTRAL ARKANSAS

CITY           SKY/WX    TMP DP  RH WIND       PRES   REMARKS
LITTLE ROCK    CLOUDY    42  42 100 NE8       30.37F
N LITTLE ROCK    N/A     41  41 100 E8        30.35F
JACKSONVILLE   CLOUDY    41  41  99 E7        30.37F
SEARCY         CLOUDY    42  42 100 NE8       30.39S
HOT SPRINGS    CLOUDY    43  43 100 E8        30.34F
RUSSELLVILLE   CLOUDY    42  40  92 MISG      30.36R
CLINTON        CLOUDY    41  37  87 VRB5      30.36F
$$

ARZ036-221700-
EAST ARKANSAS

CITY           SKY/WX    TMP DP  RH WIND       PRES   REMARKS
WEST MEMPHIS   CLOUDY    43  32  65 N7        30.38R HAZE
$$

ARZ050-053-066-070-073-221700-
SOUTHWEST ARKANSAS

CITY           SKY/WX    TMP DP  RH WIND       PRES   REMARKS
ARKADELPHIA    CLOUDY    43  41  93 NE7       30.35F
CAMDEN         CLOUDY    45  41  87 CALM      30.35R FOG
TEXARKANA      CLOUDY    45  45 100 E9        30.30R FOG
EL DORADO      CLOUDY    45  45 100 N8        30.31S FOG
DE QUEEN       CLOUDY    48  47  96 E13       30.28F
$$

ARZ056-057-069-221700-
SOUTHEAST ARKANSAS

CITY           SKY/WX    TMP DP  RH WIND       PRES   REMARKS
PINE BLUFF     CLOUDY    42  42 100 N10       30.36S
STUTTGART      CLOUDY    43  42  97 N13       30.37F
MONTICELLO     CLOUDY    44  41  89 NE12      30.34S

$$





USA.gov is the U.S. government's official web portal to all federal, state and local government web resources and services.